Theta_e
300 300 301 301 301 300 300 300 301 300 300 300 300 300 300 300 300 296 289 289 287 284 283 284 286 281 281 280 276 280 275 277 276 268 267 270 269 272 270 272 271 270 269 267 270 267 267 280 280 274 278 282 282 283
300 300 300 301 300 301 300 300 300 300 300 300 300 299 299 299 299 297 289 291 290 284 282 287 288 288 286 286 283 281 277 277 278 273 270 273 269 272 270 266 276 270 272 270 271 271 278 282 280 282 283 281 282 282
300 300 300 300 300 300 300 301 301 300 300 300 300 299 298 297 297 295 290 287 283 277 280 279 279 285 289 289 287 273 276 280 279 279 274 269 264 271 264 267 271 274 277 273 273 275 276 280 281 282 282 282 283 284
300 300 300 300 300 300 300 300 300 300 300 300 300 299 297 296 296 295 285 285 285 283 276 276 287 283 287 283 282 282 283 283 280 275 265 262 263 273 270 271 271 273 274 273 273 275 276 279 280 280 280 283 283 284
300 300 300 300 300 300 300 300 300 300 300 300 299 298 296 295 295 290 286 289 289 282 274 275 280 283 283 283 282 281 279 276 271 268 262 262 272 270 271 272 270 274 272 271 269 275 275 275 279 281 280 280 282 282
300 300 300 300 300 300 300 300 300 300 300 299 299 298 296 294 294 283 275 289 288 284 269 266 276 279 281 281 280 278 277 276 273 267 263 265 274 273 262 262 273 277 278 278 275 278 277 278 279 280 279 280 282 282
299 300 300 300 300 300 300 300 300 300 299 299 299 297 296 295 289 280 276 284 289 281 269 266 267 276 280 279 277 276 277 274 271 261 262 267 274 272 261 260 273 278 279 279 280 279 277 278 276 280 281 281 283 283
299 299 299 299 300 300 300 299 299 299 299 298 298 296 295 294 290 281 284 289 286 276 271 262 267 272 278 274 271 275 272 270 267 264 268 267 272 271 264 273 277 279 280 279 280 281 279 280 280 279 281 280 280 280
299 299 299 299 299 300 299 299 298 298 296 294 293 292 287 283 277 282 291 290 283 274 263 263 263 260 277 274 274 272 271 262 272 264 265 268 264 265 273 275 276 277 277 277 277 278 278 277 277 278 279 279 278 278
298 298 298 299 299 299 299 298 296 295 293 291 288 278 272 278 289 288 281 271 271 269 266 269 272 267 273 271 267 265 266 260 259 267 271 263 271 276 275 276 277 277 278 278 275 275 276 276 277 277 277 278 278 279
298 298 298 299 299 299 299 297 296 294 291 282 274 274 283 291 280 275 266 266 263 266 269 271 272 272 275 267 266 267 262 263 257 265 264 261 267 274 277 277 278 279 279 278 278 278 279 278 278 277 278 279 280 280
298 298 299 299 299 298 298 297 296 289 287 284 282 283 279 272 266 264 262 269 271 269 270 270 272 272 272 272 264 265 263 263 260 270 261 260 271 275 276 277 278 279 279 279 280 279 279 279 279 279 278 279 279 280
298 298 299 299 299 297 297 297 293 292 290 283 276 271 269 268 261 262 258 264 262 270 273 272 270 272 272 272 264 263 258 259 270 258 261 267 273 276 277 278 278 280 280 280 280 280 280 279 280 279 278 279 279 279
298 298 298 298 296 296 297 294 293 289 281 272 270 264 266 260 266 268 269 268 272 273 273 272 270 268 269 267 269 262 267 267 257 257 264 270 274 276 278 279 278 278 279 278 279 279 279 279 279 280 280 280 279 278
297 298 298 296 296 295 294 293 291 284 277 271 272 264 267 273 273 274 275 274 275 275 273 270 270 270 267 262 269 266 257 256 263 264 270 272 276 277 277 278 278 278 278 278 279 278 278 278 278 278 279 280 280 280
297 297 294 295 295 294 293 290 283 278 272 272 273 273 275 272 270 273 274 274 276 275 274 270 266 259 260 265 260 262 265 263 266 270 274 274 275 277 277 278 278 278 279 278 278 279 278 278 278 278 279 279 280 280
297 289 295 295 294 293 291 282 277 272 272 269 271 276 274 273 272 274 275 275 276 273 266 266 261 265 267 263 267 270 264 269 272 274 274 276 276 277 278 278 278 278 278 278 278 278 277 278 279 278 277 278 279 280
286 291 295 294 292 289 285 278 274 270 269 272 272 273 275 275 274 276 276 275 274 273 273 269 271 266 262 265 264 271 273 274 274 275 276 277 278 277 277 277 278 278 277 277 277 277 277 277 276 277 278 279 279 279
290 293 295 293 288 281 277 277 275 269 272 275 277 277 275 276 277 277 277 277 276 276 272 271 267 267 268 271 272 272 273 275 274 276 277 277 276 276 277 278 277 277 276 276 275 275 276 277 277 277 278 279 278 279
294 294 293 290 288 279 274 273 276 271 271 274 276 275 275 275 276 276 276 275 275 273 267 267 271 273 273 275 276 275 276 277 277 275 275 274 275 276 276 276 275 276 275 275 275 275 275 275 277 277 277 277 277 277
290 290 291 287 282 279 276 273 271 274 274 274 276 274 273 275 274 273 274 275 271 268 271 274 275 277 278 278 279 279 278 277 274 272 272 272 275 274 275 275 275 274 274 273 272 273 274 274 276 277 277 277 278 279
287 289 284 284 278 277 274 277 275 276 274 275 274 275 272 267 268 273 275 270 271 274 274 276 276 276 277 277 276 277 277 277 276 275 274 273 272 273 273 274 273 272 272 272 272 273 274 275 277 278 278 278 279 280
287 284 280 280 275 274 272 278 273 275 267 270 273 271 269 268 272 275 269 273 274 275 275 276 277 278 277 277 277 277 277 276 272 274 275 272 274 274 274 273 273 271 270 272 274 274 275 277 277 277 278 278 277 277
286 279 275 274 273 268 275 270 275 274 271 267 265 264 269 268 272 266 267 269 271 274 275 277 276 276 276 276 275 275 277 274 273 275 274 272 272 272 273 272 272 272 273 273 274 275 276 276 276 277 275 273 272 272
272 271 274 269 273 267 268 270 270 269 261 265 261 261 265 268 260 260 265 266 265 269 274 276 277 276 273 274 275 275 276 274 270 271 273 273 272 272 271 271 272 273 274 275 274 273 273 275 276 273 271 271 270 269
268 271 270 269 269 270 270 264 261 262 260 261 262 265 267 259 257 259 261 265 268 268 269 271 272 272 273 274 271 272 273 274 269 268 271 272 271 269 268 268 269 271 276 275 274 272 273 273 272 270 268 268 268 268
267 268 273 277 276 275 269 269 272 265 260 260 260 260 258 257 255 261 268 272 271 275 276 276 275 272 270 272 274 275 274 273 269 270 272 272 271 270 268 268 270 273 275 274 274 275 272 270 269 268 268 268 267 267
270 273 268 272 272 274 264 264 262 261 261 268 265 262 260 261 261 266 270 274 274 275 276 275 275 273 271 271 271 270 269 269 266 268 269 269 267 268 269 272 273 274 274 275 276 274 272 270 268 267 266 266 266 267
269 275 274 268 267 268 265 264 264 267 271 265 262 259 262 271 271 270 273 275 273 273 268 268 268 267 267 268 266 264 263 265 264 262 261 262 264 265 270 271 271 272 274 275 275 273 271 270 268 267 266 266 266 266
268 276 269 262 263 264 267 270 265 268 272 269 268 269 269 268 270 272 271 269 268 265 262 262 260 261 260 257 259 260 261 260 258 259 262 263 264 268 269 270 271 273 276 273 270 269 270 267 267 265 264 264 263 262
275 270 264 263 262 264 266 265 264 266 264 264 261 265 266 265 267 266 265 263 266 264 264 260 259 256 257 257 256 263 264 261 259 263 265 266 267 269 270 271 273 275 272 270 268 266 265 264 263 262 261 260 259 260
265 264 264 260 261 264 265 269 267 268 263 262 263 257 260 260 261 265 273 270 266 264 258 256 256 259 259 259 259 259 261 264 265 266 266 268 269 270 271 273 275 272 271 269 268 266 264 263 261 260 260 259 259 258
264 264 263 262 261 260 259 262 259 259 255 256 259 260 261 262 261 265 266 264 263 259 257 256 257 256 261 261 262 262 261 263 264 268 269 271 271 273 273 275 273 271 269 267 265 263 262 261 260 260 259 258 257 257
Wind_Speed
10 11 11 11 10 10 11 12 11 11 10 10 10 9 9 10 11 4 3 2 1 3 10 6 4 3 12 9 7 4 5 5 3 5 2 3 5 5 8 11 11 7 6 2 3 3 1 15 8 7 3 5 10 17
11 11 11 11 10 10 11 11 10 10 9 9 9 8 9 10 11 6 2 2 1 3 7 6 11 13 10 12 3 2 4 4 3 2 3 4 7 5 12 10 5 2 2 5 6 4 9 9 4 4 5 4 3 9
11 11 11 11 10 10 11 11 10 10 10 9 9 7 7 8 8 5 2 2 2 2 5 3 4 6 2 5 6 2 3 4 1 6 2 4 2 1 3 8 7 8 9 5 9 6 11 5 6 2 5 4 3 5
12 12 11 12 11 10 11 11 10 10 10 10 10 6 6 8 7 6 1 2 2 2 3 6 3 12 15 4 3 4 3 1 1 2 2 3 2 4 3 7 11 8 7 4 7 8 6 4 5 7 9 6 7 7
13 12 12 12 11 11 11 11 10 10 11 11 10 5 4 6 8 4 1 2 1 3 3 5 9 6 9 3 4 5 4 2 1 2 2 4 3 1 3 3 5 2 4 4 5 7 7 7 7 10 11 11 8 8
13 13 12 12 11 11 11 11 11 10 10 10 11 8 4 4 6 4 4 2 3 2 4 4 4 6 6 7 7 3 2 4 3 4 4 4 5 3 2 3 5 5 9 7 4 6 4 8 7 6 6 7 9 11
14 13 13 12 11 11 11 10 10 10 11 10 10 8 5 6 2 3 5 4 6 4 4 4 5 5 4 4 4 3 4 4 4 1 1 3 2 4 3 2 7 6 7 4 3 5 5 7 3 5 5 6 6 6
14 14 13 11 12 11 10 9 9 10 9 10 8 5 5 6 5 3 3 3 3 5 4 2 5 5 2 3 3 2 3 4 4 3 3 1 3 2 1 9 10 6 8 8 6 2 3 6 7 6 4 6 8 6
14 14 11 12 12 11 9 8 7 8 1 4 1 6 4 2 1 3 6 2 3 5 3 2 3 5 3 3 2 5 3 4 2 0 3 5 3 2 6 8 6 6 6 8 8 7 8 7 8 8 8 8 6 7
15 11 12 14 13 12 9 5 4 7 5 2 3 4 3 3 5 4 5 3 4 3 4 2 1 3 3 1 4 3 2 2 2 5 2 3 3 3 4 3 3 6 6 7 8 10 10 10 9 10 11 9 8 8
13 13 14 15 13 11 8 10 11 9 3 3 2 1 3 4 4 3 1 3 2 1 3 4 5 3 2 1 4 3 3 1 2 7 4 3 1 3 6 7 6 7 6 6 6 8 11 12 14 14 14 15 14 14
15 17 16 14 12 10 9 9 16 5 3 5 3 1 3 4 4 5 2 3 3 5 2 4 5 5 4 3 4 3 2 3 5 1 5 3 3 6 7 7 7 7 8 12 11 15 16 17 16 14 15 19 19 18
17 17 16 13 12 9 10 9 14 9 6 3 4 4 4 3 4 5 4 4 1 3 3 0 2 2 3 3 2 3 3 6 2 4 4 4 4 5 6 7 8 9 11 12 15 16 17 21 21 21 20 18 19 19
17 17 16 12 11 10 18 20 16 10 4 3 4 3 5 4 6 6 4 5 6 3 2 3 2 3 2 2 3 2 5 3 4 1 5 2 7 9 10 10 11 15 14 13 16 17 19 17 19 20 18 17 17 18
16 16 15 17 17 20 21 18 14 3 3 3 3 5 7 5 4 4 4 0 3 3 3 3 2 2 2 1 3 1 6 3 5 5 3 4 8 10 13 13 14 14 13 16 16 16 17 19 18 19 17 15 14 16
16 14 9 20 22 22 22 14 4 3 3 2 4 4 4 1 4 2 2 2 2 3 3 4 2 4 4 3 3 6 4 5 4 3 6 5 11 13 13 13 12 12 14 17 15 17 17 17 16 17 17 16 15 15
17 3 23 26 23 22 20 5 3 2 5 3 4 3 3 1 4 4 3 4 2 4 3 3 3 8 0 2 3 4 5 6 4 8 4 9 13 14 12 9 12 14 16 17 16 17 18 18 17 15 16 14 14 14
3 10 28 28 19 13 2 2 3 4 6 5 4 4 4 3 2 3 4 3 3 3 4 6 4 2 5 4 5 8 8 8 6 7 8 11 12 9 7 11 13 15 16 16 18 17 17 16 16 12 15 15 13 13
12 17 31 32 13 5 4 2 3 4 7 3 4 4 3 4 4 5 5 5 4 3 4 3 3 3 4 5 8 7 6 8 9 10 9 9 7 7 9 12 14 14 16 18 17 12 13 16 13 12 11 10 10 9
29 31 33 30 10 4 4 2 3 3 3 4 3 4 4 4 4 4 5 4 3 3 2 3 6 7 8 9 9 8 8 9 8 8 6 5 5 6 9 10 10 15 14 15 13 16 12 13 11 11 11 12 12 12
15 17 29 9 2 3 3 4 2 4 3 3 2 3 4 2 3 3 4 3 3 4 3 4 6 8 7 6 6 6 6 4 4 3 4 5 6 4 8 9 12 11 11 12 12 14 14 12 13 12 13 13 12 11
9 17 4 2 3 1 1 3 3 2 2 3 2 2 2 2 3 4 2 2 3 4 4 4 3 4 3 4 4 4 5 6 5 4 5 4 5 8 10 10 10 11 12 11 11 12 13 13 13 13 13 12 14 11
16 5 4 3 3 5 5 4 3 4 1 3 1 2 3 2 4 2 2 3 4 4 4 4 3 1 2 3 4 6 5 5 3 4 4 2 6 9 9 10 10 11 11 12 11 12 12 16 14 14 10 10 9 11
11 4 5 6 4 5 3 3 4 3 2 1 1 3 3 3 1 2 4 4 5 2 1 3 2 1 3 4 3 5 4 1 2 3 3 4 7 10 10 9 10 10 10 11 12 11 12 12 15 8 9 9 9 9
8 3 5 5 4 4 5 5 4 3 4 5 3 4 4 2 2 1 4 5 2 1 2 2 1 2 3 4 4 3 3 1 1 4 6 4 8 10 9 9 9 10 10 9 11 12 13 13 6 7 9 9 11 11
6 6 9 9 5 7 7 5 6 7 4 3 5 4 2 4 2 6 4 3 2 3 3 3 3 3 4 3 2 1 2 1 0 3 7 7 7 7 10 11 11 12 8 10 11 13 13 7 7 9 9 11 12 10
6 6 6 4 5 6 2 1 3 4 5 6 4 1 3 2 6 6 3 3 3 4 3 3 3 4 3 2 2 1 1 1 2 5 7 7 7 7 6 8 11 11 12 14 13 7 6 7 7 7 8 9 11 10
5 5 7 8 3 4 5 3 4 6 5 4 4 4 7 9 7 4 5 4 4 3 3 1 3 3 2 1 1 1 3 3 4 5 6 5 4 5 5 6 8 16 11 9 5 6 6 6 8 9 10 9 9 10
3 3 7 5 3 3 6 7 7 5 4 5 6 4 5 4 4 3 3 3 2 3 3 2 2 2 2 2 2 2 2 4 8 11 9 9 9 6 6 9 9 9 10 7 11 10 12 10 9 8 9 9 9 9
3 4 4 4 7 7 6 5 5 4 3 5 4 2 3 3 4 2 1 2 3 3 3 3 2 3 2 1 4 5 4 3 3 3 6 9 7 9 10 10 10 10 3 6 6 8 12 10 10 10 11 10 9 10
3 3 4 3 5 4 5 4 1 3 2 2 1 5 5 4 4 3 1 2 5 5 5 4 4 1 0 3 3 7 9 3 4 6 7 8 9 9 9 8 8 4 6 7 7 7 8 9 9 11 13 13 12 11
3 5 5 2 4 5 2 4 3 3 2 2 4 1 4 4 2 4 2 4 6 5 2 1 1 4 4 4 4 4 9 8 8 8 10 8 8 9 8 7 2 5 7 8 8 8 9 10 9 10 11 12 11 12
3 3 3 3 3 2 4 5 3 2 3 2 5 5 5 6 6 3 1 3 4 4 3 3 4 4 7 8 6 6 7 6 10 13 16 15 17 13 7 1 6 8 11 10 10 10 11 12 11 11 11 11 10 10
Wind_Direction
284 286 291 296 299 306 311 315 314 315 317 322 324 326 330 333 335 349 269 234 142 262 284 264 275 282 304 285 284 321 349 16 316 14 331 331 309 319 295 302 299 310 304 9 351 318 245 7 24 34 270 325 352 352
270 272 279 284 289 293 301 306 306 310 308 313 317 316 323 333 332 336 255 257 166 210 253 301 282 271 244 257 340 338 240 284 257 303 6 325 302 347 335 312 339 352 19 322 359 350 21 60 116 187 246 293 45 21
261 265 270 277 285 288 296 297 297 298 302 302 306 303 324 336 351 11 291 286 27 264 300 3 299 314 198 264 241 221 277 222 224 192 208 246 237 33 311 300 312 325 313 300 292 321 336 46 7 338 326 299 314 91
257 263 267 271 273 280 289 289 287 289 300 298 294 291 315 325 320 333 180 229 173 256 268 277 334 319 316 309 266 189 234 160 119 89 149 185 186 203 272 288 288 260 311 288 293 301 327 23 316 306 308 293 298 301
254 258 261 266 264 272 281 281 278 281 290 293 290 283 286 304 319 338 203 255 54 113 291 293 312 286 317 334 24 46 56 90 87 0 77 245 250 313 280 265 257 215 263 309 296 268 244 258 263 279 286 292 285 293
251 254 258 261 260 267 276 275 274 277 279 286 289 239 245 289 324 50 16 284 1 117 69 341 290 299 313 3 25 44 277 249 141 162 219 267 258 95 247 264 285 311 314 300 286 306 275 287 281 281 285 322 339 327
248 251 259 255 258 266 273 273 272 274 279 279 265 223 233 269 135 143 193 226 312 97 85 330 323 280 323 19 319 295 282 252 146 195 237 201 260 113 122 219 303 306 308 310 311 316 342 359 326 350 337 330 334 337
243 248 256 249 254 266 266 270 278 286 279 286 245 242 278 284 319 305 279 213 68 84 78 90 277 338 316 287 299 272 297 19 334 208 333 216 342 83 297 253 283 295 311 313 319 305 209 281 310 312 304 323 336 323
236 243 249 246 254 258 256 261 286 294 193 120 77 299 12 82 68 236 223 189 78 125 153 112 170 258 339 278 269 333 54 7 308 320 262 83 328 22 304 353 351 328 328 305 314 329 324 323 311 307 306 306 281 277
231 237 254 249 248 245 234 229 166 138 140 117 53 61 340 239 239 299 26 46 20 321 47 215 258 263 105 327 296 33 30 242 357 257 0 91 177 268 311 342 297 287 289 320 336 333 327 317 310 298 287 273 259 261
221 243 252 249 247 235 224 190 167 144 104 51 86 194 240 287 48 41 346 105 291 332 214 230 195 228 244 150 231 168 228 269 34 267 113 296 199 253 287 288 299 311 318 311 286 294 302 296 298 296 296 291 287 276
227 244 247 246 232 222 220 196 173 125 168 188 173 69 29 46 36 83 251 300 187 229 218 183 228 199 273 109 90 304 178 40 243 270 69 293 235 234 269 288 290 286 286 297 298 289 284 285 283 279 285 283 279 278
229 240 241 238 203 215 231 214 143 136 130 44 49 39 70 309 40 158 215 263 258 236 221 138 312 197 345 58 43 66 63 237 7 37 230 219 228 288 276 273 281 282 290 281 286 294 302 297 294 293 290 284 283 280
236 240 227 202 171 194 144 146 144 148 95 119 136 286 168 258 235 199 200 184 229 148 161 169 231 141 233 45 180 133 247 51 356 327 240 283 314 301 303 296 298 299 295 299 308 301 290 293 294 291 282 278 276 274
239 230 193 163 164 154 151 149 152 83 111 163 128 230 223 218 215 217 224 47 253 160 117 32 347 114 275 38 214 149 1 258 213 230 238 255 289 295 301 298 297 296 301 303 311 308 297 296 292 287 286 285 272 274
228 181 170 166 160 150 156 140 63 74 43 124 241 244 235 101 270 271 228 226 217 156 86 66 90 35 273 197 79 227 226 224 251 244 295 281 296 296 298 295 298 302 310 308 314 309 306 304 305 303 297 288 280 272
186 165 160 158 157 154 138 97 87 130 181 217 247 225 234 235 218 224 192 232 190 100 170 123 119 226 268 267 225 217 215 247 279 292 258 289 296 294 297 298 307 313 311 314 315 314 308 304 297 294 293 294 293 287
125 164 159 153 143 128 69 85 114 146 234 229 228 224 207 210 209 247 235 232 136 186 140 193 167 157 214 233 262 267 280 284 275 266 282 291 294 288 293 308 311 313 315 315 316 314 309 308 305 302 303 296 291 288
156 160 154 147 140 113 128 201 134 221 229 242 241 227 225 234 218 228 232 239 199 186 124 130 223 198 227 239 259 262 268 282 282 291 291 291 288 292 309 309 312 316 315 316 316 313 308 304 299 298 294 296 292 289
156 155 150 153 130 114 125 223 122 188 233 225 235 219 212 207 219 219 230 222 182 160 120 183 231 247 251 254 258 266 267 266 284 294 285 279 285 298 304 312 317 319 317 316 315 310 307 304 299 300 295 291 289 284
120 152 145 128 102 100 149 150 201 206 234 240 248 178 244 204 198 207 223 184 108 190 229 235 247 250 243 246 245 254 273 276 267 214 258 302 310 295 310 316 322 318 318 317 312 309 309 303 303 301 299 295 288 280
109 120 91 92 103 89 90 210 190 201 178 241 305 206 251 272 259 240 188 127 215 224 206 235 237 232 260 303 303 289 267 276 279 280 300 309 329 324 317 320 322 320 314 308 306 304 303 304 306 307 307 305 309 296
104 79 80 114 140 174 237 146 156 199 179 252 286 225 259 242 231 105 211 208 221 219 205 219 245 127 173 258 288 289 287 295 289 311 318 297 310 305 311 319 318 312 307 304 305 303 302 306 314 318 332 330 344 2
81 84 135 167 153 195 195 176 192 213 184 194 163 264 247 228 251 69 224 228 239 241 168 144 156 289 309 302 276 276 306 358 290 329 324 304 308 310 321 315 307 300 297 299 301 304 313 314 318 344 351 2 3 4
100 186 152 161 188 129 170 190 188 169 218 206 144 287 259 76 57 275 239 262 267 210 169 180 209 244 232 264 281 301 44 78 357 305 315 306 307 308 313 307 301 297 301 304 318 319 315 318 358 8 10 11 13 15
147 178 173 175 179 168 179 169 194 200 162 195 226 246 59 97 93 250 237 230 177 188 207 188 208 256 274 228 231 294 286 298 72 305 313 314 307 302 306 309 312 311 327 320 315 315 319 11 14 28 27 22 23 30
151 174 179 189 176 167 155 139 170 125 165 197 227 158 94 158 239 249 260 234 169 223 201 202 209 220 206 225 237 224 278 292 215 274 299 302 297 284 270 287 301 310 316 313 311 333 16 24 32 35 41 38 34 32
178 178 157 171 171 147 153 149 158 184 212 223 104 159 184 191 225 229 202 226 199 207 214 250 126 133 160 170 191 318 310 303 307 294 296 282 262 275 280 298 305 304 306 308 9 46 50 41 45 49 50 49 42 38
181 178 144 154 121 158 187 178 201 217 191 132 154 209 233 214 208 200 246 208 182 125 94 83 342 24 43 2 345 323 330 345 331 326 332 322 325 312 328 320 314 318 322 79 64 71 71 66 58 55 55 57 52 51
209 148 118 134 162 197 216 177 211 231 187 183 166 16 353 308 248 199 126 129 139 153 169 139 157 74 305 320 297 309 280 258 208 207 299 302 296 304 311 311 313 322 39 66 68 61 57 54 53 48 50 51 49 50
160 109 99 141 199 224 208 206 43 84 92 183 236 158 220 239 309 337 146 101 102 93 73 35 8 332 144 300 278 313 313 279 238 263 258 274 281 285 291 297 309 351 82 80 75 73 74 70 69 70 64 61 53 57
113 156 149 146 268 268 46 133 164 174 236 136 257 9 352 53 242 310 62 76 72 68 61 108 333 289 251 257 255 232 243 281 291 285 288 282 281 278 283 295 299 112 98 90 84 78 74 82 83 79 76 68 65 63
71 73 80 85 31 13 302 91 27 317 6 249 251 204 200 174 202 201 357 43 121 150 211 232 243 258 275 276 272 275 272 266 271 281 285 283 285 270 263 175 121 109 101 96 87 86 82 84 81 78 74 70 62 57